Year,Month,Day,Hour,Minute,Value (Times are PST for temperature in C)
2014,07,14,00,00,22.80
2014,07,14,00,01,22.80
2014,07,14,00,02,22.70
2014,07,14,00,03,22.70
2014,07,14,00,04,22.60
2014,07,14,00,05,22.60
2014,07,14,00,06,22.50
2014,07,14,00,07,22.50
2014,07,14,00,08,22.40
2014,07,14,00,09,22.40
2014,07,14,00,10,22.40
2014,07,14,00,11,22.40
2014,07,14,00,12,22.30
2014,07,14,00,13,22.30
2014,07,14,00,14,22.30
2014,07,14,00,15,22.30
2014,07,14,00,16,22.30
2014,07,14,00,17,22.20
2014,07,14,00,18,22.20
2014,07,14,00,19,22.20
2014,07,14,00,20,22.20
2014,07,14,00,21,22.20
2014,07,14,00,22,22.10
2014,07,14,00,23,22.10
2014,07,14,00,24,22.10
2014,07,14,00,25,22.10
2014,07,14,00,26,22.10
2014,07,14,00,27,22.00
2014,07,14,00,28,22.00
2014,07,14,00,29,21.90
2014,07,14,00,30,21.90
2014,07,14,00,31,21.90
2014,07,14,00,32,21.80
2014,07,14,00,33,21.80
2014,07,14,00,34,21.80
2014,07,14,00,35,21.70
2014,07,14,00,36,21.70
2014,07,14,00,37,21.60
2014,07,14,00,38,21.60
2014,07,14,00,39,21.60
2014,07,14,00,40,21.60
2014,07,14,00,41,21.50
2014,07,14,00,42,21.40
2014,07,14,00,43,21.40
2014,07,14,00,44,21.40
2014,07,14,00,45,21.30
2014,07,14,00,46,21.30
2014,07,14,00,47,21.30
2014,07,14,00,48,21.20
2014,07,14,00,49,21.20
2014,07,14,00,50,21.20
2014,07,14,00,51,21.10
2014,07,14,00,52,21.10
2014,07,14,00,53,21.10
2014,07,14,00,54,21.10
2014,07,14,00,55,21.10
2014,07,14,00,56,21.10
2014,07,14,00,57,21.10
2014,07,14,00,58,21.10
2014,07,14,00,59,21.10
2014,07,14,01,00,21.00
2014,07,14,01,01,21.00
2014,07,14,01,02,21.00
2014,07,14,01,03,21.00
2014,07,14,01,04,21.00
2014,07,14,01,05,20.90
2014,07,14,01,06,20.90
2014,07,14,01,07,20.90
2014,07,14,01,08,20.80
2014,07,14,01,09,20.80
2014,07,14,01,10,20.80
2014,07,14,01,11,20.80
2014,07,14,01,12,20.70
2014,07,14,01,13,20.70
2014,07,14,01,14,20.80
2014,07,14,01,15,20.80
2014,07,14,01,16,20.80
2014,07,14,01,17,20.80
2014,07,14,01,18,20.90
2014,07,14,01,19,20.90
2014,07,14,01,20,21.00
2014,07,14,01,21,21.00
2014,07,14,01,22,21.10
2014,07,14,01,23,21.10
2014,07,14,01,24,21.20
2014,07,14,01,25,21.20
2014,07,14,01,26,21.20
2014,07,14,01,27,21.20
2014,07,14,01,28,21.20
2014,07,14,01,29,21.20
2014,07,14,01,30,21.20
2014,07,14,01,31,21.20
2014,07,14,01,32,21.10
2014,07,14,01,33,21.10
2014,07,14,01,34,21.10
2014,07,14,01,35,21.00
2014,07,14,01,36,21.00
2014,07,14,01,37,21.00
2014,07,14,01,38,21.00
2014,07,14,01,39,21.00
2014,07,14,01,40,21.10
2014,07,14,01,41,21.10
2014,07,14,01,42,21.10
2014,07,14,01,43,21.10
2014,07,14,01,44,21.10
2014,07,14,01,45,21.10
2014,07,14,01,46,21.20
2014,07,14,01,47,21.20
2014,07,14,01,48,21.20
2014,07,14,01,49,21.10
2014,07,14,01,50,21.10
2014,07,14,01,51,21.10
2014,07,14,01,52,21.10
2014,07,14,01,53,21.20
2014,07,14,01,54,21.20
2014,07,14,01,55,21.20
2014,07,14,01,56,21.20
2014,07,14,01,57,21.20
2014,07,14,01,58,21.10
2014,07,14,01,59,21.10
2014,07,14,02,00,21.10
2014,07,14,02,01,21.10
2014,07,14,02,02,21.10
2014,07,14,02,03,21.10
2014,07,14,02,04,21.20
2014,07,14,02,05,21.20
2014,07,14,02,06,21.20
2014,07,14,02,07,21.20
2014,07,14,02,08,21.20
2014,07,14,02,09,21.30
2014,07,14,02,10,21.30
2014,07,14,02,11,21.30
2014,07,14,02,12,21.20
2014,07,14,02,13,21.20
2014,07,14,02,14,21.20
2014,07,14,02,15,21.10
2014,07,14,02,16,21.10
2014,07,14,02,17,21.10
2014,07,14,02,18,21.10
2014,07,14,02,19,21.00
2014,07,14,02,20,21.00
2014,07,14,02,21,21.00
2014,07,14,02,22,21.00
2014,07,14,02,23,21.00
2014,07,14,02,24,21.00
2014,07,14,02,25,20.90
2014,07,14,02,26,21.00
2014,07,14,02,27,21.00
2014,07,14,02,28,21.00
2014,07,14,02,29,21.00
2014,07,14,02,30,21.00
2014,07,14,02,31,21.00
2014,07,14,02,32,21.00
2014,07,14,02,33,20.90
2014,07,14,02,34,20.90
2014,07,14,02,35,20.80
2014,07,14,02,36,20.80
2014,07,14,02,37,20.70
2014,07,14,02,38,20.60
2014,07,14,02,39,20.60
2014,07,14,02,40,20.60
2014,07,14,02,41,20.50
2014,07,14,02,42,20.50
2014,07,14,02,43,20.50
2014,07,14,02,44,20.50
2014,07,14,02,45,20.50
2014,07,14,02,46,20.50
2014,07,14,02,47,20.50
2014,07,14,02,48,20.50
2014,07,14,02,49,20.50
2014,07,14,02,50,20.50
2014,07,14,02,51,20.40
2014,07,14,02,52,20.40
2014,07,14,02,53,20.40
2014,07,14,02,54,20.40
2014,07,14,02,55,20.40
2014,07,14,02,56,20.30
2014,07,14,02,57,20.30
2014,07,14,02,58,20.30
2014,07,14,02,59,20.30
2014,07,14,03,00,20.30
2014,07,14,03,01,20.30
2014,07,14,03,02,20.30
2014,07,14,03,03,20.30
2014,07,14,03,04,20.30
2014,07,14,03,05,20.30
2014,07,14,03,06,20.20
2014,07,14,03,07,20.20
2014,07,14,03,08,20.20
2014,07,14,03,09,20.20
2014,07,14,03,10,20.20
2014,07,14,03,11,20.20
2014,07,14,03,12,20.20
2014,07,14,03,13,20.20
2014,07,14,03,14,20.20
2014,07,14,03,15,20.20
2014,07,14,03,16,20.20
2014,07,14,03,17,20.20
2014,07,14,03,18,20.10
2014,07,14,03,19,20.10
2014,07,14,03,20,20.10
2014,07,14,03,21,20.00
2014,07,14,03,22,20.00
2014,07,14,03,23,20.00
2014,07,14,03,24,19.90
2014,07,14,03,25,19.90
2014,07,14,03,26,19.80
2014,07,14,03,27,19.80
2014,07,14,03,28,19.80
2014,07,14,03,29,19.70
2014,07,14,03,30,19.70
2014,07,14,03,31,19.70
2014,07,14,03,32,19.70
2014,07,14,03,33,19.70
2014,07,14,03,34,19.70
2014,07,14,03,35,19.70
2014,07,14,03,36,19.80
2014,07,14,03,37,19.80
2014,07,14,03,38,19.90
2014,07,14,03,39,19.90
2014,07,14,03,40,20.00
2014,07,14,03,41,20.00
2014,07,14,03,42,20.00
2014,07,14,03,43,20.00
2014,07,14,03,44,20.10
2014,07,14,03,45,20.10
2014,07,14,03,46,20.10
2014,07,14,03,47,20.10
2014,07,14,03,48,20.10
2014,07,14,03,49,20.20
2014,07,14,03,50,20.20
2014,07,14,03,51,20.10
2014,07,14,03,52,20.10
2014,07,14,03,53,20.00
2014,07,14,03,54,20.00
2014,07,14,03,55,19.90
2014,07,14,03,56,19.90
2014,07,14,03,57,19.90
2014,07,14,03,58,19.90
2014,07,14,03,59,19.90
2014,07,14,04,00,20.00
2014,07,14,04,01,20.00
2014,07,14,04,02,20.10
2014,07,14,04,03,20.20
2014,07,14,04,04,20.30
2014,07,14,04,05,20.40
2014,07,14,04,06,20.50
2014,07,14,04,07,20.60
2014,07,14,04,08,20.80
2014,07,14,04,09,20.90
2014,07,14,04,10,21.10
2014,07,14,04,11,21.20
2014,07,14,04,12,21.30
2014,07,14,04,13,21.30
2014,07,14,04,14,21.30
2014,07,14,04,15,21.20
2014,07,14,04,16,21.10
2014,07,14,04,17,21.00
2014,07,14,04,18,20.90
2014,07,14,04,19,20.90
2014,07,14,04,20,20.90
2014,07,14,04,21,20.90
2014,07,14,04,22,20.90
2014,07,14,04,23,20.90
2014,07,14,04,24,20.90
2014,07,14,04,25,21.00
2014,07,14,04,26,21.00
2014,07,14,04,27,21.10
2014,07,14,04,28,21.10
2014,07,14,04,29,21.10
2014,07,14,04,30,21.10
2014,07,14,04,31,21.00
2014,07,14,04,32,20.90
2014,07,14,04,33,20.80
2014,07,14,04,34,20.80
2014,07,14,04,35,20.70
2014,07,14,04,36,20.70
2014,07,14,04,37,20.60
2014,07,14,04,38,20.60
2014,07,14,04,39,20.60
2014,07,14,04,40,20.50
2014,07,14,04,41,20.30
2014,07,14,04,42,20.20
2014,07,14,04,43,20.10
2014,07,14,04,44,20.00
2014,07,14,04,45,19.90
2014,07,14,04,46,19.80
2014,07,14,04,47,19.80
2014,07,14,04,48,19.80
2014,07,14,04,49,19.80
2014,07,14,04,50,19.80
2014,07,14,04,51,19.70
2014,07,14,04,52,19.80
2014,07,14,04,53,19.90
2014,07,14,04,54,20.00
2014,07,14,04,55,20.10
2014,07,14,04,56,20.20
2014,07,14,04,57,20.20
2014,07,14,04,58,20.20
2014,07,14,04,59,20.10
2014,07,14,05,00,20.00
2014,07,14,05,01,19.90
2014,07,14,05,02,19.80
2014,07,14,05,03,19.70
2014,07,14,05,04,19.70
2014,07,14,05,05,19.60
2014,07,14,05,06,19.60
2014,07,14,05,07,19.60
2014,07,14,05,08,19.70
2014,07,14,05,09,19.70
2014,07,14,05,10,19.70
2014,07,14,05,11,19.70
2014,07,14,05,12,19.70
2014,07,14,05,13,19.70
2014,07,14,05,14,19.70
2014,07,14,05,15,19.70
2014,07,14,05,16,19.70
2014,07,14,05,17,19.70
2014,07,14,05,18,19.60
2014,07,14,05,19,19.60
2014,07,14,05,20,19.50
2014,07,14,05,21,19.40
2014,07,14,05,22,19.40
2014,07,14,05,23,19.40
2014,07,14,05,24,19.30
2014,07,14,05,25,19.30
2014,07,14,05,26,19.30
2014,07,14,05,27,19.20
2014,07,14,05,28,19.20
2014,07,14,05,29,19.10
2014,07,14,05,30,19.10
2014,07,14,05,31,19.00
2014,07,14,05,32,19.00
2014,07,14,05,33,18.90
2014,07,14,05,34,18.90
2014,07,14,05,35,18.90
2014,07,14,05,36,18.90
2014,07,14,05,37,18.90
2014,07,14,05,38,18.90
2014,07,14,05,39,19.00
2014,07,14,05,40,19.00
2014,07,14,05,41,19.10
2014,07,14,05,42,19.10
2014,07,14,05,43,19.20
2014,07,14,05,44,19.20
2014,07,14,05,45,19.20
2014,07,14,05,46,19.20
2014,07,14,05,47,19.20
2014,07,14,05,48,19.10
2014,07,14,05,49,19.10
2014,07,14,05,50,19.00
2014,07,14,05,51,19.00
2014,07,14,05,52,18.90
2014,07,14,05,53,18.90
2014,07,14,05,54,18.80
2014,07,14,05,55,18.80
2014,07,14,05,56,18.80
2014,07,14,05,57,18.70
2014,07,14,05,58,18.70
2014,07,14,05,59,18.70
2014,07,14,06,00,18.70
2014,07,14,06,01,18.60
2014,07,14,06,02,18.60
2014,07,14,06,03,18.60
2014,07,14,06,04,18.60
2014,07,14,06,05,18.60
2014,07,14,06,06,18.60
2014,07,14,06,07,18.60
2014,07,14,06,08,18.60
2014,07,14,06,09,18.70
2014,07,14,06,10,18.70
2014,07,14,06,11,18.70
2014,07,14,06,12,18.70
2014,07,14,06,13,18.80
2014,07,14,06,14,18.80
2014,07,14,06,15,18.80
2014,07,14,06,16,18.90
2014,07,14,06,17,18.90
2014,07,14,06,18,18.90
2014,07,14,06,19,18.90
2014,07,14,06,20,18.90
2014,07,14,06,21,18.90
2014,07,14,06,22,18.90
2014,07,14,06,23,18.90
2014,07,14,06,24,18.90
2014,07,14,06,25,18.90
2014,07,14,06,26,18.90
2014,07,14,06,27,18.90
2014,07,14,06,28,18.90
2014,07,14,06,29,18.90
2014,07,14,06,30,18.90
2014,07,14,06,31,18.90
2014,07,14,06,32,18.90
2014,07,14,06,33,18.90
2014,07,14,06,34,18.90
2014,07,14,06,35,18.90
2014,07,14,06,36,18.90
2014,07,14,06,37,19.00
2014,07,14,06,38,19.00
2014,07,14,06,39,19.00
2014,07,14,06,40,19.00
2014,07,14,06,41,19.00
2014,07,14,06,42,19.00
2014,07,14,06,43,19.00
2014,07,14,06,44,19.10
2014,07,14,06,45,19.10
2014,07,14,06,46,19.10
2014,07,14,06,47,19.10
2014,07,14,06,48,19.20
2014,07,14,06,49,19.30
2014,07,14,06,50,19.30
2014,07,14,06,51,19.50
2014,07,14,06,52,19.60
2014,07,14,06,53,19.70
2014,07,14,06,54,19.80
2014,07,14,06,55,19.90
2014,07,14,06,56,19.90
2014,07,14,06,57,19.90
2014,07,14,06,58,20.00
2014,07,14,06,59,20.00
2014,07,14,07,00,20.10
2014,07,14,07,01,20.20
2014,07,14,07,02,20.20
2014,07,14,07,03,20.30
2014,07,14,07,04,20.40
2014,07,14,07,05,20.40
2014,07,14,07,06,20.50
2014,07,14,07,07,20.60
2014,07,14,07,08,20.70
2014,07,14,07,09,20.80
2014,07,14,07,10,20.80
2014,07,14,07,11,20.80
2014,07,14,07,12,20.80
2014,07,14,07,13,20.80
2014,07,14,07,14,20.80
2014,07,14,07,15,20.80
2014,07,14,07,16,20.70
2014,07,14,07,17,20.70
2014,07,14,07,18,20.70
2014,07,14,07,19,20.70
2014,07,14,07,20,20.70
2014,07,14,07,21,20.80
2014,07,14,07,22,20.80
2014,07,14,07,23,20.90
2014,07,14,07,24,20.90
2014,07,14,07,25,21.00
2014,07,14,07,26,21.00
2014,07,14,07,27,21.10
2014,07,14,07,28,21.10
2014,07,14,07,29,21.00
2014,07,14,07,30,20.90
2014,07,14,07,31,20.90
2014,07,14,07,32,20.80
2014,07,14,07,33,20.70
2014,07,14,07,34,20.70
2014,07,14,07,35,20.70
2014,07,14,07,36,20.70
2014,07,14,07,37,20.60
2014,07,14,07,38,20.60
2014,07,14,07,39,20.50
2014,07,14,07,40,20.50
2014,07,14,07,41,20.40
2014,07,14,07,42,20.40
2014,07,14,07,43,20.40
2014,07,14,07,44,20.30
2014,07,14,07,45,20.30
2014,07,14,07,46,20.20
2014,07,14,07,47,20.20
2014,07,14,07,48,20.20
2014,07,14,07,49,20.20
2014,07,14,07,50,20.20
2014,07,14,07,51,20.10
2014,07,14,07,52,20.10
2014,07,14,07,53,20.20
2014,07,14,07,54,20.20
2014,07,14,07,55,20.20
2014,07,14,07,56,20.20
2014,07,14,07,57,20.30
2014,07,14,07,58,20.30
2014,07,14,07,59,20.30
2014,07,14,08,00,20.30
2014,07,14,08,01,20.40
2014,07,14,08,02,20.40
2014,07,14,08,03,20.50
2014,07,14,08,04,20.50
2014,07,14,08,05,20.60
2014,07,14,08,06,20.60
2014,07,14,08,07,20.60
2014,07,14,08,08,20.60
2014,07,14,08,09,20.70
2014,07,14,08,10,20.70
2014,07,14,08,11,20.80
2014,07,14,08,12,20.80
2014,07,14,08,13,20.90
2014,07,14,08,14,21.00
2014,07,14,08,15,21.00
2014,07,14,08,16,21.10
2014,07,14,08,17,21.10
2014,07,14,08,18,21.20
2014,07,14,08,19,21.10
2014,07,14,08,20,20.90
2014,07,14,08,21,20.80
2014,07,14,08,22,20.80
2014,07,14,08,23,20.70
2014,07,14,08,24,20.60
2014,07,14,08,25,20.60
2014,07,14,08,26,20.60
2014,07,14,08,27,20.60
2014,07,14,08,28,20.60
2014,07,14,08,29,20.60
2014,07,14,08,30,20.60
2014,07,14,08,31,20.60
2014,07,14,08,32,20.60
2014,07,14,08,33,20.60
2014,07,14,08,34,20.70
2014,07,14,08,35,20.80
2014,07,14,08,36,21.00
2014,07,14,08,37,21.10
2014,07,14,08,38,21.30
2014,07,14,08,39,21.50
2014,07,14,08,40,21.60
2014,07,14,08,41,21.70
2014,07,14,08,42,21.80
2014,07,14,08,43,21.80
2014,07,14,08,44,21.90
2014,07,14,08,45,22.00
2014,07,14,08,46,22.10
2014,07,14,08,47,22.10
2014,07,14,08,48,22.20
2014,07,14,08,49,22.20
2014,07,14,08,50,22.20
2014,07,14,08,51,22.30
2014,07,14,08,52,22.30
2014,07,14,08,53,22.30
2014,07,14,08,54,22.40
2014,07,14,08,55,22.40
2014,07,14,08,56,22.50
2014,07,14,08,57,22.50
2014,07,14,08,58,22.60
2014,07,14,08,59,22.60
2014,07,14,09,00,22.60
2014,07,14,09,01,22.70
2014,07,14,09,02,22.70
2014,07,14,09,03,22.80
2014,07,14,09,04,22.80
2014,07,14,09,05,23.00
2014,07,14,09,06,23.10
2014,07,14,09,07,23.30
2014,07,14,09,08,23.40
2014,07,14,09,09,23.60
2014,07,14,09,10,23.70
2014,07,14,09,11,23.80
2014,07,14,09,12,23.80
2014,07,14,09,13,23.80
2014,07,14,09,14,23.80
2014,07,14,09,15,23.70
2014,07,14,09,16,23.70
2014,07,14,09,17,23.80
2014,07,14,09,18,23.60
2014,07,14,09,19,23.50
2014,07,14,09,20,23.40
2014,07,14,09,21,23.40
2014,07,14,09,22,23.30
2014,07,14,09,23,23.30
2014,07,14,09,24,23.20
2014,07,14,09,25,23.10
2014,07,14,09,26,23.10
2014,07,14,09,27,23.20
2014,07,14,09,28,23.30
2014,07,14,09,29,23.40
2014,07,14,09,30,23.40
2014,07,14,09,31,23.30
2014,07,14,09,32,23.40
2014,07,14,09,33,23.50
2014,07,14,09,34,23.60
2014,07,14,09,35,23.60
2014,07,14,09,36,23.60
2014,07,14,09,37,23.50
2014,07,14,09,38,23.00
2014,07,14,09,39,22.60
2014,07,14,09,40,22.50
2014,07,14,09,41,22.30
2014,07,14,09,42,22.30
2014,07,14,09,43,22.40
2014,07,14,09,44,22.40
2014,07,14,09,45,22.30
2014,07,14,09,46,22.20
2014,07,14,09,47,22.00
2014,07,14,09,48,21.90
2014,07,14,09,49,21.80
2014,07,14,09,50,21.70
2014,07,14,09,51,21.70
2014,07,14,09,52,21.80
2014,07,14,09,53,21.80
2014,07,14,09,54,21.90
2014,07,14,09,55,22.00
2014,07,14,09,56,22.00
2014,07,14,09,57,22.00
2014,07,14,09,58,22.00
2014,07,14,09,59,22.10
2014,07,14,10,00,22.20
2014,07,14,10,01,22.40
2014,07,14,10,02,22.50
2014,07,14,10,03,22.60
2014,07,14,10,04,22.50
2014,07,14,10,05,22.40
2014,07,14,10,06,22.40
2014,07,14,10,07,22.40
2014,07,14,10,08,22.50
2014,07,14,10,09,22.60
2014,07,14,10,10,22.70
2014,07,14,10,11,22.80
2014,07,14,10,12,23.00
2014,07,14,10,13,23.10
2014,07,14,10,14,23.30
2014,07,14,10,15,23.50
2014,07,14,10,16,23.60
2014,07,14,10,17,23.80
2014,07,14,10,18,24.00
2014,07,14,10,19,24.20
2014,07,14,10,20,24.30
2014,07,14,10,21,24.30
2014,07,14,10,22,24.30
2014,07,14,10,23,24.40
2014,07,14,10,24,24.40
2014,07,14,10,25,24.50
2014,07,14,10,26,24.50
2014,07,14,10,27,24.60
2014,07,14,10,28,24.70
2014,07,14,10,29,24.90
2014,07,14,10,30,25.00
2014,07,14,10,31,25.20
2014,07,14,10,32,25.30
2014,07,14,10,33,25.40
2014,07,14,10,34,25.50
2014,07,14,10,35,25.50
2014,07,14,10,36,25.50
2014,07,14,10,37,25.40
2014,07,14,10,38,25.40
2014,07,14,10,39,25.40
2014,07,14,10,40,25.50
2014,07,14,10,41,25.50
2014,07,14,10,42,25.50
2014,07,14,10,43,25.40
2014,07,14,10,44,25.30
2014,07,14,10,45,25.20
2014,07,14,10,46,25.10
2014,07,14,10,47,25.00
2014,07,14,10,48,25.00
2014,07,14,10,49,25.00
2014,07,14,10,50,25.10
2014,07,14,10,51,25.20
2014,07,14,10,52,25.40
2014,07,14,10,53,25.60
2014,07,14,10,54,25.70
2014,07,14,10,55,25.70
2014,07,14,10,56,25.70
2014,07,14,10,57,25.50
2014,07,14,10,58,25.30
2014,07,14,10,59,25.20
2014,07,14,11,00,25.20
2014,07,14,11,01,25.20
2014,07,14,11,02,25.20
2014,07,14,11,03,25.20
2014,07,14,11,04,25.00
2014,07,14,11,05,24.90
2014,07,14,11,06,24.80
2014,07,14,11,07,24.70
2014,07,14,11,08,24.50
2014,07,14,11,09,24.30
2014,07,14,11,10,24.10
2014,07,14,11,11,23.90
2014,07,14,11,12,23.90
2014,07,14,11,13,23.80
2014,07,14,11,14,23.70
2014,07,14,11,15,23.70
2014,07,14,11,16,23.70
2014,07,14,11,17,23.80
2014,07,14,11,18,23.90
2014,07,14,11,19,24.00
2014,07,14,11,20,24.00
2014,07,14,11,21,24.00
2014,07,14,11,22,24.00
2014,07,14,11,23,24.10
2014,07,14,11,24,24.00
2014,07,14,11,25,23.90
2014,07,14,11,26,23.90
2014,07,14,11,27,24.00
2014,07,14,11,28,24.10
2014,07,14,11,29,24.00
2014,07,14,11,30,23.90
2014,07,14,11,31,23.70
2014,07,14,11,32,23.60
2014,07,14,11,33,23.60
2014,07,14,11,34,23.60
2014,07,14,11,35,23.60
2014,07,14,11,36,23.60
2014,07,14,11,37,23.80
2014,07,14,11,38,23.90
2014,07,14,11,39,23.90
2014,07,14,11,40,23.90
2014,07,14,11,41,23.90
2014,07,14,11,42,23.90
2014,07,14,11,43,24.10
2014,07,14,11,44,24.30
2014,07,14,11,45,24.50
2014,07,14,11,46,24.70
2014,07,14,11,47,24.70
2014,07,14,11,48,24.70
2014,07,14,11,49,24.70
2014,07,14,11,50,24.70
2014,07,14,11,51,24.70
2014,07,14,11,52,24.70
2014,07,14,11,53,24.70
2014,07,14,11,54,24.80
2014,07,14,11,55,24.90
2014,07,14,11,56,25.00
2014,07,14,11,57,25.20
2014,07,14,11,58,25.10
2014,07,14,11,59,25.10
2014,07,14,12,00,25.10
2014,07,14,12,01,25.10
2014,07,14,12,02,25.20
2014,07,14,12,03,25.40
2014,07,14,12,04,25.60
2014,07,14,12,05,25.70
2014,07,14,12,06,25.80
2014,07,14,12,07,25.90
2014,07,14,12,08,25.90
2014,07,14,12,09,25.90
2014,07,14,12,10,25.90
2014,07,14,12,11,26.00
2014,07,14,12,12,26.10
2014,07,14,12,13,26.10
2014,07,14,12,14,26.10
2014,07,14,12,15,26.10
2014,07,14,12,16,26.10
2014,07,14,12,17,26.10
2014,07,14,12,18,26.10
2014,07,14,12,19,26.10
2014,07,14,12,20,26.10
2014,07,14,12,21,26.10
2014,07,14,12,22,26.10
2014,07,14,12,23,26.10
2014,07,14,12,24,26.10
2014,07,14,12,25,26.10
2014,07,14,12,26,26.20
2014,07,14,12,27,26.20
2014,07,14,12,28,26.30
2014,07,14,12,29,26.50
2014,07,14,12,30,26.60
2014,07,14,12,31,26.60
2014,07,14,12,32,26.70
2014,07,14,12,33,26.70
2014,07,14,12,34,26.60
2014,07,14,12,35,26.60
2014,07,14,12,36,26.70
2014,07,14,12,37,26.60
2014,07,14,12,38,26.70
2014,07,14,12,39,26.80
2014,07,14,12,40,26.90
2014,07,14,12,41,27.00
2014,07,14,12,42,27.00
2014,07,14,12,43,27.10
2014,07,14,12,44,27.10
2014,07,14,12,45,27.00
2014,07,14,12,46,27.00
2014,07,14,12,47,26.90
2014,07,14,12,48,26.80
2014,07,14,12,49,26.70
2014,07,14,12,50,26.70
2014,07,14,12,51,26.60
2014,07,14,12,52,26.50
2014,07,14,12,53,26.40
2014,07,14,12,54,26.40
2014,07,14,12,55,26.50
2014,07,14,12,56,26.60
2014,07,14,12,57,26.70
2014,07,14,12,58,26.70
2014,07,14,12,59,26.70
2014,07,14,13,00,26.70
2014,07,14,13,01,26.90
2014,07,14,13,02,27.10
2014,07,14,13,03,27.30
2014,07,14,13,04,27.30
2014,07,14,13,05,27.40
2014,07,14,13,06,27.40
2014,07,14,13,07,27.30
2014,07,14,13,08,27.30
2014,07,14,13,09,27.30
2014,07,14,13,10,27.10
2014,07,14,13,11,27.00
2014,07,14,13,12,26.90
2014,07,14,13,13,26.90
2014,07,14,13,14,27.00
2014,07,14,13,15,27.10
2014,07,14,13,16,27.00
2014,07,14,13,17,27.00
2014,07,14,13,18,27.10
2014,07,14,13,19,27.10
2014,07,14,13,20,27.10
2014,07,14,13,21,27.00
2014,07,14,13,22,27.00
2014,07,14,13,23,27.00
2014,07,14,13,24,27.10
2014,07,14,13,25,27.20
2014,07,14,13,26,27.20
2014,07,14,13,27,27.10
2014,07,14,13,28,27.20
2014,07,14,13,29,27.10
2014,07,14,13,30,27.00
2014,07,14,13,31,26.90
2014,07,14,13,32,26.80
2014,07,14,13,33,26.80
2014,07,14,13,34,26.80
2014,07,14,13,35,26.80
2014,07,14,13,36,26.90
2014,07,14,13,37,27.00
2014,07,14,13,38,27.00
2014,07,14,13,39,27.00
2014,07,14,13,40,27.10
2014,07,14,13,41,27.10
2014,07,14,13,42,27.20
2014,07,14,13,43,27.20
2014,07,14,13,44,27.30
2014,07,14,13,45,27.40
2014,07,14,13,46,27.30
2014,07,14,13,47,27.20
2014,07,14,13,48,27.00
2014,07,14,13,49,26.80
2014,07,14,13,50,26.70
2014,07,14,13,51,26.70
2014,07,14,13,52,26.70
2014,07,14,13,53,26.70
2014,07,14,13,54,26.60
2014,07,14,13,55,26.60
2014,07,14,13,56,26.70
2014,07,14,13,57,26.70
2014,07,14,13,58,26.80
2014,07,14,13,59,26.80
2014,07,14,14,00,26.80
2014,07,14,14,01,26.80
2014,07,14,14,02,26.70
2014,07,14,14,03,26.60
2014,07,14,14,04,26.50
2014,07,14,14,05,26.40
2014,07,14,14,06,26.40
2014,07,14,14,07,26.40
2014,07,14,14,08,26.40
2014,07,14,14,09,26.30
2014,07,14,14,10,26.30
2014,07,14,14,11,26.30
2014,07,14,14,12,26.30
2014,07,14,14,13,26.20
2014,07,14,14,14,26.20
2014,07,14,14,15,26.30
2014,07,14,14,16,26.20
2014,07,14,14,17,26.10
2014,07,14,14,18,26.10
2014,07,14,14,19,26.00
2014,07,14,14,20,26.00
2014,07,14,14,21,26.10
2014,07,14,14,22,26.10
2014,07,14,14,23,26.00
2014,07,14,14,24,26.00
2014,07,14,14,25,26.10
2014,07,14,14,26,26.10
2014,07,14,14,27,26.20
2014,07,14,14,28,26.20
2014,07,14,14,29,26.20
2014,07,14,14,30,26.20
2014,07,14,14,31,26.20
2014,07,14,14,32,26.20
2014,07,14,14,33,26.30
2014,07,14,14,34,26.40
2014,07,14,14,35,26.50
2014,07,14,14,36,26.60
2014,07,14,14,37,26.50
2014,07,14,14,38,26.50
2014,07,14,14,39,26.50
2014,07,14,14,40,26.40
2014,07,14,14,41,26.50
2014,07,14,14,42,26.60
2014,07,14,14,43,26.70
2014,07,14,14,44,26.90
2014,07,14,14,45,27.00
2014,07,14,14,46,27.00
2014,07,14,14,47,27.00
2014,07,14,14,48,26.90
2014,07,14,14,49,27.00
2014,07,14,14,50,27.10
2014,07,14,14,51,27.10
2014,07,14,14,52,27.00
2014,07,14,14,53,26.80
2014,07,14,14,54,26.70
2014,07,14,14,55,26.60
2014,07,14,14,56,26.50
2014,07,14,14,57,26.40
2014,07,14,14,58,26.30
2014,07,14,14,59,26.30
2014,07,14,15,00,26.40
2014,07,14,15,01,26.40
2014,07,14,15,02,26.50
2014,07,14,15,03,26.70
2014,07,14,15,04,26.80
2014,07,14,15,05,26.90
2014,07,14,15,06,26.90
2014,07,14,15,07,27.00
2014,07,14,15,08,27.00
2014,07,14,15,09,26.90
2014,07,14,15,10,26.90
2014,07,14,15,11,26.90
2014,07,14,15,12,26.80
2014,07,14,15,13,26.80
2014,07,14,15,14,26.70
2014,07,14,15,15,26.70
2014,07,14,15,16,26.80
2014,07,14,15,17,26.80
2014,07,14,15,18,26.90
2014,07,14,15,19,27.10
2014,07,14,15,20,27.10
2014,07,14,15,21,27.20
2014,07,14,15,22,27.30
2014,07,14,15,23,27.40
2014,07,14,15,24,27.50
2014,07,14,15,25,27.40
2014,07,14,15,26,27.30
2014,07,14,15,27,27.20
2014,07,14,15,28,27.20
2014,07,14,15,29,27.30
2014,07,14,15,30,27.30
2014,07,14,15,31,27.30
2014,07,14,15,32,27.30
2014,07,14,15,33,27.30
2014,07,14,15,34,27.30
2014,07,14,15,35,27.30
2014,07,14,15,36,27.30
2014,07,14,15,37,27.30
2014,07,14,15,38,27.30
2014,07,14,15,39,27.20
2014,07,14,15,40,27.20
2014,07,14,15,41,27.20
2014,07,14,15,42,27.10
2014,07,14,15,43,27.10
2014,07,14,15,44,27.00
2014,07,14,15,45,26.90
2014,07,14,15,46,27.00
2014,07,14,15,47,27.00
2014,07,14,15,48,27.00
2014,07,14,15,49,27.00
2014,07,14,15,50,27.00
2014,07,14,15,51,27.00
2014,07,14,15,52,27.10
2014,07,14,15,53,27.10
2014,07,14,15,54,27.10
2014,07,14,15,55,27.10
2014,07,14,15,56,27.10
2014,07,14,15,57,27.10
2014,07,14,15,58,27.10
2014,07,14,15,59,27.10
2014,07,14,16,00,27.10
2014,07,14,16,01,27.00
2014,07,14,16,02,27.00
2014,07,14,16,03,27.00
2014,07,14,16,04,27.10
2014,07,14,16,05,27.00
2014,07,14,16,06,27.00
2014,07,14,16,07,27.00
2014,07,14,16,08,27.10
2014,07,14,16,09,27.10
2014,07,14,16,10,27.20
2014,07,14,16,11,27.10
2014,07,14,16,12,27.20
2014,07,14,16,13,27.20
2014,07,14,16,14,27.30
2014,07,14,16,15,27.30
2014,07,14,16,16,27.40
2014,07,14,16,17,27.50
2014,07,14,16,18,27.70
2014,07,14,16,19,27.80
2014,07,14,16,20,27.80
2014,07,14,16,21,27.90
2014,07,14,16,22,27.90
2014,07,14,16,23,27.90
2014,07,14,16,24,27.90
2014,07,14,16,25,27.80
2014,07,14,16,26,27.80
2014,07,14,16,27,27.80
2014,07,14,16,28,27.70
2014,07,14,16,29,27.70
2014,07,14,16,30,27.80
2014,07,14,16,31,28.00
2014,07,14,16,32,28.10
2014,07,14,16,33,28.10
2014,07,14,16,34,28.20
2014,07,14,16,35,28.20
2014,07,14,16,36,28.20
2014,07,14,16,37,28.30
2014,07,14,16,38,28.30
2014,07,14,16,39,28.30
2014,07,14,16,40,28.30
2014,07,14,16,41,28.30
2014,07,14,16,42,28.30
2014,07,14,16,43,28.40
2014,07,14,16,44,28.40
2014,07,14,16,45,28.40
2014,07,14,16,46,28.30
2014,07,14,16,47,28.40
2014,07,14,16,48,28.30
2014,07,14,16,49,28.30
2014,07,14,16,50,28.30
2014,07,14,16,51,28.30
2014,07,14,16,52,28.40
2014,07,14,16,53,28.50
2014,07,14,16,54,28.60
2014,07,14,16,55,28.60
2014,07,14,16,56,28.50
2014,07,14,16,57,28.40
2014,07,14,16,58,28.40
2014,07,14,16,59,28.40
2014,07,14,17,00,28.40
2014,07,14,17,01,28.50
2014,07,14,17,02,28.50
2014,07,14,17,03,28.50
2014,07,14,17,04,28.60
2014,07,14,17,05,28.70
2014,07,14,17,06,28.60
2014,07,14,17,07,28.60
2014,07,14,17,08,28.60
2014,07,14,17,09,28.60
2014,07,14,17,10,28.60
2014,07,14,17,11,28.60
2014,07,14,17,12,28.60
2014,07,14,17,13,28.60
2014,07,14,17,14,28.50
2014,07,14,17,15,28.40
2014,07,14,17,16,28.30
2014,07,14,17,17,28.10
2014,07,14,17,18,28.00
2014,07,14,17,19,27.90